#timestamp,LO_Frequency,Hit,StdDev 
1521468015.4,286047000.2,N
1521468035.2,286047000.7,N
1521468055.1,286047000.0,N
1521468056.0,286047000.0,N
1521468075.8,286047000.3,N
1521468095.7,286046998.1,N
1521468115.5,286046998.5,N
1521468135.3,286046999.4,N
1521468155.2,286046996.5,Y
1521468175.0,286047001.1,P
1521468175.9,286047001.1,N
1521468195.8,286046998.3,P
1521468215.6,286046998.6,N
1521468235.4,286046998.3,N
1521468255.3,286046999.4,N
1521468275.1,286046996.5,Y
1521468295.9,286046997.2,P
1521468315.7,286046996.9,N
1521468335.5,286046996.6,N
1521468355.4,286046999.6,N
1521468375.2,286046999.1,N
1521468395.1,286046998.9,N
1521468396.0,286046998.9,N
1521468415.8,286046998.5,N
1521468435.6,286046998.5,N
1521468455.5,286047000.3,N
1521468475.3,286046998.2,N
1521468495.1,286047001.0,N
1521468515.9,286047000.9,N
1521468535.7,286046998.1,N
1521468555.6,286046999.5,N
1521468575.4,286046998.8,N
1521468595.2,286046999.1,N
1521468615.1,286046999.4,N
1521468616.0,286046999.4,N
1521468635.8,286046999.2,N
1521468655.7,286046998.1,N
1521468675.5,286046998.6,N
1521468695.3,286047001.0,N
1521468715.2,286046998.9,N
1521468735.9,286047001.2,N
1521468755.7,286047000.6,N
1521468775.6,286047000.5,N
1521468795.4,286047001.2,N
1521468815.3,286046998.2,N
1521468835.1,286047000.9,N
1521468836.0,286047000.9,N
1521468855.8,286047002.7,N
1521468875.7,286047001.4,N
1521468895.5,286047001.9,N
1521468915.3,286047002.4,N
1521468935.2,286047001.3,N
1521468955.0,286047001.7,N
1521468955.9,286047001.7,N
1521468975.8,286047002.1,N
1521468995.6,286046999.9,N
1521469015.4,286047000.0,N
1521469035.3,286047001.6,N
1521469055.1,286047002.6,N
1521469075.9,286047001.8,N
1521469095.7,286047003.2,N
1521469115.5,286047004.1,N
1521469135.4,286047001.5,N
1521469155.2,286047002.5,N
1521469175.0,286047002.1,N
1521469176.0,286047002.1,N
1521469195.8,286047001.9,N
1521469215.6,286047002.2,N
1521469235.5,286047001.7,N
1521469255.3,286047003.2,N
1521469275.2,286047004.1,Y
1521469295.0,286046999.8,P
1521469295.9,286046999.8,N
1521469315.7,286047000.3,N
1521469335.6,286047001.0,N
1521469355.4,286046998.7,N
1521469375.3,286046998.7,N
1521469395.1,286046998.4,N
1521469415.8,286047000.3,N
1521469435.7,286047000.4,N
1521469455.5,286047002.8,N
1521469475.3,286047000.4,N
1521469495.2,286047002.4,N
1521469515.0,286047000.9,N
1521469515.9,286047000.9,N
1521469535.8,286047001.2,N
1521469555.6,286046998.3,N
1521469575.4,286047001.1,N
1521469595.3,286047001.2,N
1521469615.1,286047000.8,N
1521469635.9,286047000.7,N
1521469655.7,286047001.0,N
1521469675.5,286046998.5,N
1521469695.4,286047001.0,N
1521469715.2,286046998.9,N
1521469735.1,286046998.3,N
1521469736.0,286046998.3,N
1521469755.8,286046998.2,N
1521469775.6,286047000.9,N
1521469795.5,286047000.9,N
1521469815.3,286047000.6,N
1521469835.1,286047000.4,N
1521469855.9,286047000.1,N
1521469875.7,286047000.9,N
1521469895.6,286046998.7,N
1521469915.4,286046999.3,N
1521469935.2,286047001.1,N
1521469955.1,286046998.5,N
1521469956.0,286046998.5,N
1521469975.8,286047002.3,N
1521469995.7,286047002.3,N
1521470015.5,286047001.6,N
1521470035.3,286047002.4,N
1521470055.2,286047001.6,N
1521470075.0,286047002.0,N
1521470075.9,286047002.0,N
1521470095.7,286047002.5,N
1521470115.6,286046999.7,N
1521470135.4,286047000.1,N
1521470155.3,286047002.7,N
1521470175.1,286047000.9,N
1521470176.0,286047000.9,N
1521470195.8,286046998.7,N
1521470215.7,286047000.3,N
1521470235.5,286047002.8,N
1521470255.4,286046999.7,N
1521470275.2,286046999.8,N
1521470295.0,286046998.1,N
1521470295.9,286046998.1,N
1521470315.8,286047000.9,N
1521470335.6,286047001.2,N
1521470355.4,286047001.1,N
1521470375.3,286046996.6,N
1521470395.1,286046997.3,N
1521470415.9,286046997.5,N
1521470435.7,286046995.0,N
1521470455.5,286046995.0,N
1521470475.4,286046996.3,N
1521470495.2,286046996.2,N
1521470515.0,286046994.4,N
1521470516.0,286046994.4,N
1521470535.8,286046994.4,N
1521470555.6,286046991.9,N
1521470575.5,286046991.9,N
1521470595.3,286046994.2,N
1521470615.1,286046994.5,N
1521470635.9,286046992.2,N
1521470655.7,286046991.9,N
1521470675.6,286046994.8,N
1521470695.4,286046992.3,N
1521470715.2,286046994.4,N
1521470735.1,286046992.7,N
1521470736.0,286046992.7,N
1521470755.8,286046994.8,N
1521470775.6,286046992.1,N
1521470795.5,286046994.2,N
1521470815.3,286046991.8,N
1521470835.2,286046992.9,N
1521470855.0,286046992.8,N
1521470855.9,286046992.8,N
1521470875.8,286046990.6,Y
1521470895.6,286046997.4,P
1521470915.4,286046998.8,N
1521470935.3,286046996.6,N
1521470955.1,286046997.7,N
1521470975.8,286046995.4,Y
1521470995.7,286047000.7,P
1521471015.5,286047002.3,N
1521471035.4,286047002.3,N
1521471055.2,286047000.2,N
1521471075.0,286047000.3,N
1521471075.9,286047000.3,N
1521471095.8,286046998.5,N
1521471115.6,286046996.6,N
1521471135.4,286046995.1,N
1521471155.3,286046997.5,N
1521471175.1,286046997.4,N
1521471195.9,286046999.6,N
1521471215.7,286046998.8,N
1521471235.5,286046998.5,N
1521471255.4,286046998.8,N
1521471275.2,286046996.6,N
1521471295.0,286046996.6,N
1521471295.9,286046996.6,N
1521471315.8,286046998.0,N
1521471335.6,286046997.9,N
1521471355.5,286046995.2,N
1521471375.3,286046995.7,N
1521471395.1,286046997.1,N
1521471415.9,286046999.5,N
1521471435.7,286046997.1,N
1521471455.5,286046995.3,N
1521471475.4,286046996.7,N
1521471495.2,286046996.7,N
1521471515.1,286046997.9,N
1521471516.0,286046997.9,N
1521471535.8,286046995.7,N
1521471555.6,286046995.2,N
1521471575.5,286046998.0,N
1521471595.3,286046997.6,N
